{"data":{"norad_id":51141,"epoch":"2026-05-24T17:53:23.102592Z","epoch_age_seconds":100098,"freshness":"FRESH","line1":"1 51141U 22005AP  26144.74540628 -.00000107  00000+0  11351-4 0  9997","line2":"2 51141  53.2156 317.6914 0001310  92.4668 267.6474 15.08840581240223","mean_motion":15.08840581,"eccentricity":0.000131,"inclination_deg":53.2156,"raan_deg":317.6914,"arg_perigee_deg":92.4668,"mean_anomaly_deg":267.6474,"bstar":1.1351e-5,"rev_number":24022,"period_min":95.437517928211,"perigee_km":538.83537098179,"apogee_km":540.64785517842,"semimajor_km":6917.8786130801,"source":"CELESTRAK","updated_at":"2026-05-25T13:38:16.914597Z"}}